Time,TemperatureF,DewpointF,PressureIn,WindDirection,WindDirectionDegrees,WindSpeedMPH,WindSpeedGustMPH,Humidity,HourlyPrecipIn,Conditions,Clouds,dailyrainin,SoftwareType,DateUTC
2013-06-13 00:08:00,77.8,75.0,30.03,SSE,150,0.0,1.0,90,0.00,,,0.00,weatherlink.com 1.10,2013-06-13 05:08:00,
2013-06-13 00:23:00,77.5,74.0,30.03,SSE,150,0.0,1.0,90,0.00,,,0.00,weatherlink.com 1.10,2013-06-13 05:23:00,
2013-06-13 00:38:00,77.3,75.0,30.03,SSE,150,0.0,1.0,91,0.00,,,0.00,weatherlink.com 1.10,2013-06-13 05:38:00,
2013-06-13 00:53:00,77.1,74.0,30.03,SSE,150,0.0,2.0,91,0.00,,,0.00,weatherlink.com 1.10,2013-06-13 05:53:00,
2013-06-13 01:08:00,76.9,75.0,30.03,SSE,150,0.0,1.0,92,0.00,,,0.00,weatherlink.com 1.10,2013-06-13 06:08:00,
2013-06-13 01:23:00,76.7,74.0,30.03,SSE,150,0.0,1.0,92,0.00,,,0.00,weatherlink.com 1.10,2013-06-13 06:23:00,
2013-06-13 01:38:00,76.5,74.0,30.03,SSE,150,0.0,0.0,92,0.00,,,0.00,weatherlink.com 1.10,2013-06-13 06:38:00,
2013-06-13 01:53:00,76.4,74.0,30.03,SSE,150,0.0,0.0,93,0.00,,,0.00,weatherlink.com 1.10,2013-06-13 06:53:00,
2013-06-13 02:08:00,76.2,74.0,30.03,SSE,150,0.0,0.0,93,0.00,,,0.00,weatherlink.com 1.10,2013-06-13 07:08:00,
2013-06-13 02:23:00,76.0,74.0,30.03,SSE,150,0.0,0.0,93,0.00,,,0.00,weatherlink.com 1.10,2013-06-13 07:23:00,
2013-06-13 02:38:00,75.9,74.0,30.03,SSE,150,0.0,0.0,93,0.00,,,0.00,weatherlink.com 1.10,2013-06-13 07:38:00,
2013-06-13 02:53:00,75.6,74.0,30.03,SSE,150,0.0,0.0,93,0.00,,,0.00,weatherlink.com 1.10,2013-06-13 07:53:00,
2013-06-13 03:09:00,75.5,74.0,30.03,SSE,150,0.0,0.0,94,0.00,,,0.00,weatherlink.com 1.10,2013-06-13 08:09:00,
2013-06-13 03:23:00,75.3,74.0,30.03,SSE,150,0.0,0.0,94,0.00,,,0.00,weatherlink.com 1.10,2013-06-13 08:23:00,
2013-06-13 03:38:00,75.3,74.0,30.02,SSE,150,0.0,0.0,94,0.00,,,0.00,weatherlink.com 1.10,2013-06-13 08:38:00,
2013-06-13 03:53:00,75.2,73.0,30.02,SSE,150,0.0,0.0,94,0.00,,,0.00,weatherlink.com 1.10,2013-06-13 08:53:00,
2013-06-13 04:08:00,74.8,73.0,30.02,SSE,150,0.0,0.0,94,0.00,,,0.00,weatherlink.com 1.10,2013-06-13 09:08:00,
2013-06-13 04:23:00,74.9,73.0,30.02,SSE,150,0.0,0.0,94,0.00,,,0.00,weatherlink.com 1.10,2013-06-13 09:23:00,
2013-06-13 04:38:00,74.8,73.0,30.02,SSE,150,0.0,1.0,95,0.00,,,0.00,weatherlink.com 1.10,2013-06-13 09:38:00,
2013-06-13 04:53:00,74.6,73.0,30.03,SSE,150,0.0,1.0,95,0.00,,,0.00,weatherlink.com 1.10,2013-06-13 09:53:00,
2013-06-13 05:08:00,74.5,73.0,30.03,SSE,150,0.0,0.0,95,0.00,,,0.00,weatherlink.com 1.10,2013-06-13 10:08:00,
2013-06-13 05:23:00,74.5,73.0,30.04,SSE,150,0.0,0.0,95,0.00,,,0.00,weatherlink.com 1.10,2013-06-13 10:23:00,
2013-06-13 05:38:00,74.6,73.0,30.04,SSE,150,0.0,0.0,95,0.00,,,0.00,weatherlink.com 1.10,2013-06-13 10:38:00,
2013-06-13 05:53:00,74.7,73.0,30.04,SSE,150,0.0,0.0,95,0.00,,,0.00,weatherlink.com 1.10,2013-06-13 10:53:00,
2013-06-13 06:08:00,74.7,73.0,30.06,SSE,150,0.0,0.0,95,0.00,,,0.00,weatherlink.com 1.10,2013-06-13 11:08:00,
2013-06-13 06:23:00,74.8,73.0,30.06,SSE,150,0.0,0.0,95,0.00,,,0.00,weatherlink.com 1.10,2013-06-13 11:23:00,
2013-06-13 06:38:00,74.8,73.0,30.06,SSE,150,0.0,0.0,95,0.00,,,0.00,weatherlink.com 1.10,2013-06-13 11:38:00,
2013-06-13 06:53:00,74.9,73.0,30.07,SSE,150,0.0,0.0,95,0.00,,,0.00,weatherlink.com 1.10,2013-06-13 11:53:00,
2013-06-13 07:08:00,74.7,73.0,30.07,SSE,150,0.0,1.0,95,0.00,,,0.00,weatherlink.com 1.10,2013-06-13 12:08:00,
2013-06-13 07:23:00,74.9,73.0,30.07,SSE,149,0.0,1.0,95,0.00,,,0.00,weatherlink.com 1.10,2013-06-13 12:23:00,
2013-06-13 07:38:00,75.0,74.0,30.07,SW,226,0.0,0.0,95,0.00,,,0.00,weatherlink.com 1.10,2013-06-13 12:38:00,
2013-06-13 07:53:00,75.4,74.0,30.07,SW,226,0.0,1.0,94,0.00,,,0.00,weatherlink.com 1.10,2013-06-13 12:53:00,
2013-06-13 08:08:00,75.9,74.0,30.08,South,180,0.0,4.0,94,0.00,,,0.00,weatherlink.com 1.10,2013-06-13 13:08:00,
2013-06-13 08:23:00,76.5,75.0,30.08,SSE,149,0.0,2.0,94,0.00,,,0.00,weatherlink.com 1.10,2013-06-13 13:23:00,
2013-06-13 08:39:00,77.9,76.0,30.08,SSE,149,0.0,1.0,92,0.00,,,0.00,weatherlink.com 1.10,2013-06-13 13:39:00,
2013-06-13 08:54:00,80.1,76.0,30.09,West,266,0.0,3.0,87,0.00,,,0.00,weatherlink.com 1.10,2013-06-13 13:54:00,
2013-06-13 09:09:00,82.5,76.0,30.09,NW,306,0.0,2.0,80,0.00,,,0.00,weatherlink.com 1.10,2013-06-13 14:09:00,
2013-06-13 09:24:00,83.3,75.0,30.09,WSW,246,3.0,3.0,75,0.00,,,0.00,weatherlink.com 1.10,2013-06-13 14:24:00,
2013-06-13 09:39:00,84.8,76.0,30.09,SE,140,2.0,2.0,74,0.00,,,0.00,weatherlink.com 1.10,2013-06-13 14:39:00,
2013-06-13 09:54:00,85.9,75.0,30.09,WSW,253,0.0,4.0,70,0.00,,,0.00,weatherlink.com 1.10,2013-06-13 14:54:00,
2013-06-13 10:09:00,86.9,75.0,30.09,South,189,1.0,3.0,68,0.00,,,0.00,weatherlink.com 1.10,2013-06-13 15:09:00,
2013-06-13 10:24:00,87.6,75.0,30.08,South,188,3.0,6.0,66,0.00,,,0.00,weatherlink.com 1.10,2013-06-13 15:24:00,
2013-06-13 10:39:00,88.3,75.0,30.08,SSW,203,3.0,4.0,64,0.00,,,0.00,weatherlink.com 1.10,2013-06-13 15:39:00,
2013-06-13 10:54:00,89.1,75.0,30.07,SSW,194,0.0,4.0,63,0.00,,,0.00,weatherlink.com 1.10,2013-06-13 15:54:00,
2013-06-13 11:09:00,89.2,75.0,30.08,WSW,239,0.0,4.0,63,0.00,,,0.00,weatherlink.com 1.10,2013-06-13 16:09:00,
2013-06-13 11:24:00,90.4,74.0,30.07,SE,137,1.0,5.0,59,0.00,,,0.00,weatherlink.com 1.10,2013-06-13 16:24:00,
2013-06-13 11:39:00,89.4,75.0,30.07,SW,223,0.0,2.0,63,0.00,,,0.00,weatherlink.com 1.10,2013-06-13 16:39:00,
2013-06-13 11:54:00,91.1,74.0,30.07,SW,231,0.0,3.0,58,0.00,,,0.00,weatherlink.com 1.10,2013-06-13 16:54:00,
2013-06-13 12:09:00,89.9,75.0,30.07,WNW,300,0.0,2.0,62,0.00,,,0.00,weatherlink.com 1.10,2013-06-13 17:09:00,
2013-06-13 12:24:00,90.3,75.0,30.07,West,259,0.0,2.0,61,0.00,,,0.00,weatherlink.com 1.10,2013-06-13 17:24:00,
2013-06-13 12:39:00,91.4,76.0,30.06,SE,137,1.0,3.0,61,0.00,,,0.00,weatherlink.com 1.10,2013-06-13 17:39:00,
2013-06-13 12:54:00,92.3,75.0,30.05,South,182,2.0,4.0,58,0.00,,,0.00,weatherlink.com 1.10,2013-06-13 17:54:00,
2013-06-13 13:09:00,93.4,73.0,30.05,SSE,150,3.0,5.0,52,0.00,,,0.00,weatherlink.com 1.10,2013-06-13 18:09:00,
2013-06-13 13:24:00,91.7,74.0,30.05,SSE,161,2.0,3.0,57,0.00,,,0.00,weatherlink.com 1.10,2013-06-13 18:24:00,
2013-06-13 13:39:00,91.7,74.0,30.04,SSE,154,0.0,3.0,56,0.00,,,0.00,weatherlink.com 1.10,2013-06-13 18:39:00,
2013-06-13 13:54:00,92.2,73.0,30.03,NNW,332,0.0,4.0,54,0.00,,,0.00,weatherlink.com 1.10,2013-06-13 18:54:00,
2013-06-13 14:09:00,91.8,76.0,30.02,SSE,162,0.0,2.0,61,0.00,,,0.00,weatherlink.com 1.10,2013-06-13 19:09:00,
2013-06-13 14:24:00,95.4,74.0,30.02,SSW,213,2.0,3.0,50,0.00,,,0.00,weatherlink.com 1.10,2013-06-13 19:24:00,
2013-06-13 14:39:00,94.8,74.0,30.01,SSE,161,2.0,3.0,51,0.00,,,0.00,weatherlink.com 1.10,2013-06-13 19:39:00,
2013-06-13 14:54:00,95.8,75.0,30.00,South,175,0.0,4.0,51,0.00,,,0.00,weatherlink.com 1.10,2013-06-13 19:54:00,
2013-06-13 15:09:00,95.7,72.0,29.99,South,184,1.0,3.0,47,0.00,,,0.00,weatherlink.com 1.10,2013-06-13 20:09:00,
2013-06-13 15:24:00,95.4,72.0,29.98,SSE,148,1.0,3.0,47,0.00,,,0.00,weatherlink.com 1.10,2013-06-13 20:24:00,
2013-06-13 15:39:00,95.8,72.0,29.98,SSE,148,1.0,5.0,47,0.00,,,0.00,weatherlink.com 1.10,2013-06-13 20:39:00,
2013-06-13 15:55:00,93.6,75.0,29.97,SSE,148,0.0,1.0,55,0.00,,,0.00,weatherlink.com 1.10,2013-06-13 20:55:00,
2013-06-13 16:10:00,92.9,78.0,29.96,SSW,206,0.0,3.0,62,0.00,,,0.00,weatherlink.com 1.10,2013-06-13 21:10:00,
2013-06-13 16:25:00,96.0,75.0,29.96,SSW,196,0.0,3.0,50,0.00,,,0.00,weatherlink.com 1.10,2013-06-13 21:25:00,
2013-06-13 16:40:00,94.1,74.0,29.96,SSW,198,0.0,2.0,53,0.00,,,0.00,weatherlink.com 1.10,2013-06-13 21:40:00,
2013-06-13 16:55:00,93.9,70.0,29.96,SSE,165,0.0,2.0,46,0.00,,,0.00,weatherlink.com 1.10,2013-06-13 21:55:00,
2013-06-13 17:10:00,95.1,75.0,29.95,SSE,163,0.0,2.0,52,0.00,,,0.00,weatherlink.com 1.10,2013-06-13 22:10:00,
2013-06-13 17:25:00,93.8,72.0,29.95,SSE,160,0.0,2.0,49,0.00,,,0.00,weatherlink.com 1.10,2013-06-13 22:25:00,
2013-06-13 17:40:00,91.7,75.0,29.95,SSE,160,0.0,2.0,58,0.00,,,0.00,weatherlink.com 1.10,2013-06-13 22:40:00,
2013-06-13 17:55:00,91.3,74.0,29.94,SSE,160,0.0,2.0,57,0.00,,,0.00,weatherlink.com 1.10,2013-06-13 22:55:00,
2013-06-13 18:10:00,91.5,76.0,29.93,SSE,160,0.0,0.0,61,0.00,,,0.00,weatherlink.com 1.10,2013-06-13 23:10:00,
2013-06-13 18:25:00,90.0,77.0,29.93,SSE,160,0.0,0.0,66,0.00,,,0.00,weatherlink.com 1.10,2013-06-13 23:25:00,
2013-06-13 18:40:00,88.9,76.0,29.93,SSE,160,0.0,0.0,66,0.00,,,0.00,weatherlink.com 1.10,2013-06-13 23:40:00,
2013-06-13 18:55:00,88.7,76.0,29.92,SSE,160,0.0,0.0,66,0.00,,,0.00,weatherlink.com 1.10,2013-06-13 23:55:00,
2013-06-13 19:10:00,88.0,76.0,29.92,SSE,160,0.0,0.0,67,0.00,,,0.00,weatherlink.com 1.10,2013-06-14 00:10:00,
2013-06-13 19:25:00,87.2,76.0,29.92,SSE,160,0.0,0.0,70,0.00,,,0.00,weatherlink.com 1.10,2013-06-14 00:25:00,
2013-06-13 19:40:00,86.8,77.0,29.92,SSE,160,0.0,0.0,72,0.00,,,0.00,weatherlink.com 1.10,2013-06-14 00:40:00,
2013-06-13 19:55:00,86.3,77.0,29.93,SSE,160,0.0,0.0,73,0.00,,,0.00,weatherlink.com 1.10,2013-06-14 00:55:00,
2013-06-13 20:10:00,85.3,76.0,29.93,SSE,160,0.0,0.0,74,0.00,,,0.00,weatherlink.com 1.10,2013-06-14 01:10:00,
2013-06-13 20:25:00,84.6,77.0,29.93,SSE,160,0.0,0.0,77,0.00,,,0.00,weatherlink.com 1.10,2013-06-14 01:25:00,
2013-06-13 20:40:00,83.8,77.0,29.93,SSE,160,0.0,0.0,80,0.00,,,0.00,weatherlink.com 1.10,2013-06-14 01:40:00,
2013-06-13 20:55:00,82.8,76.0,29.93,SSE,160,0.0,0.0,81,0.00,,,0.00,weatherlink.com 1.10,2013-06-14 01:55:00,
2013-06-13 21:10:00,82.0,76.0,29.93,SSE,160,0.0,0.0,82,0.00,,,0.00,weatherlink.com 1.10,2013-06-14 02:10:00,
2013-06-13 21:25:00,81.4,76.0,29.94,SSE,160,0.0,0.0,83,0.00,,,0.00,weatherlink.com 1.10,2013-06-14 02:25:00,
2013-06-13 21:40:00,80.9,76.0,29.94,SSE,160,0.0,0.0,84,0.00,,,0.00,weatherlink.com 1.10,2013-06-14 02:40:00,
2013-06-13 21:55:00,80.3,75.0,29.94,SSE,160,0.0,0.0,84,0.00,,,0.00,weatherlink.com 1.10,2013-06-14 02:55:00,
2013-06-13 22:10:00,79.8,75.0,29.95,SSE,160,0.0,0.0,85,0.00,,,0.00,weatherlink.com 1.10,2013-06-14 03:10:00,
2013-06-13 22:25:00,79.3,75.0,29.95,SSE,160,0.0,0.0,87,0.00,,,0.00,weatherlink.com 1.10,2013-06-14 03:25:00,
2013-06-13 22:40:00,78.9,75.0,29.96,SSE,160,0.0,0.0,87,0.00,,,0.00,weatherlink.com 1.10,2013-06-14 03:40:00,
2013-06-13 22:55:00,78.6,75.0,29.96,SSE,160,0.0,0.0,87,0.00,,,0.00,weatherlink.com 1.10,2013-06-14 03:55:00,
2013-06-13 23:10:00,78.3,75.0,29.97,SSE,160,0.0,0.0,88,0.00,,,0.00,weatherlink.com 1.10,2013-06-14 04:10:00,
2013-06-13 23:25:00,78.0,75.0,29.97,SSE,160,0.0,0.0,89,0.00,,,0.00,weatherlink.com 1.10,2013-06-14 04:25:00,
2013-06-13 23:40:00,77.6,74.0,29.97,SSE,160,0.0,0.0,89,0.00,,,0.00,weatherlink.com 1.10,2013-06-14 04:40:00,
2013-06-13 23:55:00,77.3,74.0,29.96,SSE,160,0.0,0.0,89,0.00,,,0.00,weatherlink.com 1.10,2013-06-14 04:55:00,